Stations météo

réclame
Mon MeteoGroup
Ornskoldsvik Airport, Suède (2267): Température de l'air & dewpoint: 08.08.2018 15:00:00 - 14.08.2018 15:00:00 (CEST)Ornskoldsvik Airport, Suède (2267): Vitesse du vent: 08.08.2018 15:00:00 - 14.08.2018 15:00:00 (CEST)Ornskoldsvik Airport, Suède (2267): Direction du vent: 08.08.2018 15:00:00 - 14.08.2018 15:00:00 (CEST)Ornskoldsvik Airport, Suède (2267): reduced air pressure: 08.08.2018 15:00:00 - 14.08.2018 15:00:00 (CEST)Ornskoldsvik Airport, Suède (2267): visibility: 08.08.2018 15:00:00 - 14.08.2018 15:00:00 (CEST)
Date & Time tt [°C] td [°C] ff [km/h] ff [knt] dd ppp [hPa] vv [km]
14.08.2018 15:00:00 15,2 5,4 5 3 ESE 1010,3 10
14.08.2018 14:00:00 15,0 6,3 11 6 SSE 1010,3 10
14.08.2018 13:00:00 15,1 3,9 9 5 NNW 1010,1 10
14.08.2018 12:00:00 15,2 3,7 9 5 W 1010,0 10
14.08.2018 11:00:00 14,7 3,5 11 6 NW 1010,0 10
14.08.2018 10:00:00 14,8 3,0 8 4 - 1009,8 10
14.08.2018 09:00:00 15,1 2,9 11 6 NW 1009,4 10
14.08.2018 08:00:00 12,7 6,9 5 3 N 1009,4 10
14.08.2018 07:00:00 12,1 6,8 5 3 NW 1009,1 10
14.08.2018 06:00:00 11,0 6,1 5 3 NW 1009,1 10
14.08.2018 05:00:00 10,3 5,9 8 4 NNW 1008,9 10
14.08.2018 04:00:00 9,6 5,8 9 5 NW 1008,6 10
14.08.2018 03:00:00 10,7 5,9 11 6 NNW 1008,4 10
14.08.2018 02:00:00 10,6 5,8 13 7 NW 1008,1 10
14.08.2018 01:00:00 9,2 6,5 9 5 NW 1008,1 10
14.08.2018 00:00:00 10,6 6,5 13 7 NW 1007,7 10
13.08.2018 23:00:00 10,8 6,5 9 5 W 1007,5 10
13.08.2018 22:00:00 12,8 6,8 11 6 W 1007,1 10
13.08.2018 21:00:00 13,9 7,2 8 4 W 1006,7 10
13.08.2018 20:00:00 15,6 6,9 8 4 W 1006,0 10
13.08.2018 19:00:00 16,6 5,5 15 8 W 1005,8 10
13.08.2018 18:00:00 16,9 5,5 15 8 W 1005,8 10
13.08.2018 17:00:00 16,9 5,8 21 11 WNW 1005,9 10
13.08.2018 16:00:00 16,5 5,6 16 9 NW 1005,7 10
13.08.2018 15:00:00 16,6 7,3 18 10 NW 1005,2 10
13.08.2018 14:00:00 17,6 6,8 18 10 NNW 1004,8 10
13.08.2018 13:00:00 17,4 7,7 18 10 WNW 1004,4 10
13.08.2018 12:00:00 16,3 8,5 15 8 NNW 1004,2 10
13.08.2018 11:00:00 14,3 8,3 18 10 NNW 1004,2 10
13.08.2018 10:00:00 13,9 8,3 22 12 NW 1003,5 10
13.08.2018 09:00:00 13,3 8,2 21 11 NW 1002,7 10
13.08.2018 08:00:00 12,6 7,5 18 10 NW 1002,2 10
13.08.2018 07:00:00 11,2 6,9 22 12 WNW 1002,0 10
13.08.2018 06:00:00 10,6 6,9 22 12 WNW 1001,8 10
13.08.2018 05:00:00 10,1 7,0 21 11 W 1001,9 10
13.08.2018 04:00:00 10,1 7,0 18 10 W 1002,0 10
13.08.2018 03:00:00 10,5 7,0 16 9 W 1002,0 10
13.08.2018 02:00:00 11,2 7,1 24 13 W 1002,1 10
13.08.2018 01:00:00 11,7 7,0 18 10 W 1002,1 10
13.08.2018 00:00:00 11,7 6,8 22 12 WNW 1002,2 10
12.08.2018 23:00:00 12,1 6,8 18 10 W 1002,2 10
12.08.2018 22:00:00 12,6 7,1 16 9 WNW 1002,3 10
12.08.2018 21:00:00 13,1 6,9 18 10 WNW 1002,3 10
12.08.2018 20:00:00 14,8 6,4 29 16 WNW 1002,3 10
12.08.2018 19:00:00 16,5 5,1 28 15 WNW 1002,1 10
12.08.2018 18:00:00 17,9 5,1 29 16 WNW 1002,2 10
12.08.2018 17:00:00 18,2 4,4 28 15 WNW 1002,8 10
12.08.2018 16:00:00 18,0 5,2 26 14 NW 1002,9 10
12.08.2018 15:00:00 17,9 5,1 24 13 WNW 1003,2 10
12.08.2018 14:00:00 17,5 5,4 24 13 WNW 1003,5 10
12.08.2018 13:00:00 17,7 6,2 22 12 WNW 1003,9 10
12.08.2018 12:00:00 16,5 5,7 16 9 WNW 1004,3 10
12.08.2018 11:00:00 15,9 6,3 13 7 WNW 1004,8 10
12.08.2018 10:00:00 14,4 6,5 15 8 WNW 1005,4 10
12.08.2018 09:00:00 14,1 6,2 13 7 WNW 1005,9 10
12.08.2018 08:00:00 12,5 6,5 16 9 NW 1006,5 10
12.08.2018 07:00:00 11,0 7,1 9 5 WNW 1007,1 10
12.08.2018 06:00:00 9,2 6,6 8 4 WNW 1007,6 10
12.08.2018 05:00:00 8,1 6,4 13 7 W 1007,8 10
12.08.2018 04:00:00 7,7 5,7 5 3 NNW 1008,2 10
12.08.2018 03:00:00 7,5 5,3 5 3 WNW 1008,7 10
12.08.2018 02:00:00 7,9 6,4 11 6 W 1009,2 10
12.08.2018 01:00:00 9,1 6,0 5 3 W 1009,4 10
12.08.2018 00:00:00 10,5 6,8 9 5 W 1009,7 10
11.08.2018 23:00:00 9,2 6,3 4 2 - 1010,4 10
11.08.2018 22:00:00 13,1 6,7 13 7 W 1010,1 10
11.08.2018 21:00:00 14,1 6,9 11 6 W 1009,9 10
11.08.2018 20:00:00 16,8 6,6 18 10 W 1009,7 10
11.08.2018 19:00:00 17,7 6,2 26 14 W 1009,8 10
11.08.2018 18:00:00 18,0 5,9 22 12 W 1009,8 10
11.08.2018 17:00:00 18,8 6,6 24 13 W 1009,5 10
11.08.2018 16:00:00 18,8 5,6 34 18 WSW 1009,5 10
11.08.2018 15:00:00 18,5 6,3 29 16 W 1009,2 10
11.08.2018 14:00:00 19,2 6,7 35 19 WSW 1008,5 10
11.08.2018 13:00:00 18,9 6,4 37 20 W 1007,5 10
11.08.2018 12:00:00 18,6 7,1 39 21 W 1006,6 10
11.08.2018 11:00:00 18,2 7,9 35 19 WSW 1005,9 10
11.08.2018 10:00:00 17,1 8,0 35 19 WSW 1004,8 10
11.08.2018 09:00:00 16,5 9,4 31 17 WSW 1003,4 10
11.08.2018 08:00:00 15,3 10,3 26 14 SW 1002,3 10
11.08.2018 07:00:00 14,6 8,5 21 11 S 1001,3 10
11.08.2018 06:00:00 14,6 8,3 24 13 S 1001,0 10
11.08.2018 05:00:00 14,8 9,6 26 14 S 1001,6 10
11.08.2018 04:00:00 15,3 9,9 24 13 S 1001,8 10
11.08.2018 03:00:00 15,6 9,9 21 11 S 1002,1 10
11.08.2018 02:00:00 15,8 10,6 15 8 S 1002,4 10
11.08.2018 01:00:00 16,2 11,8 11 6 SSW 1002,5 10
11.08.2018 00:00:00 16,7 12,2 9 5 S 1002,6 10
10.08.2018 23:00:00 18,2 13,7 21 11 S 1002,5 10
10.08.2018 22:00:00 18,4 16,7 21 11 S 1002,2 10
10.08.2018 21:00:00 19,1 18,3 16 9 S 1002,3 10
10.08.2018 20:00:00 19,3 19,1 21 11 S 1002,9 5
10.08.2018 19:00:00 19,4 19,2 18 10 S 1003,3 8
10.08.2018 18:00:00 19,5 19,3 15 8 SSE 1003,9 10
10.08.2018 17:00:00 18,8 18,8 15 8 SE 1004,7 8
10.08.2018 16:00:00 18,2 18,2 21 11 E 1005,6 4,7
10.08.2018 15:00:00 18,0 18,0 24 13 E 1006,9 2,9
10.08.2018 14:00:00 18,0 18,0 16 9 E 1007,3 0,9
10.08.2018 13:00:00 17,5 17,5 11 6 E 1008,8 0,5
10.08.2018 12:00:00 18,3 17,7 13 7 E 1009,5 10
10.08.2018 11:00:00 17,8 17,5 13 7 E 1010,4 10
10.08.2018 10:00:00 17,3 17,3 11 6 E 1011,0 9
10.08.2018 09:00:00 17,1 17,1 11 6 E 1011,4 0,3
10.08.2018 08:00:00 17,1 17,1 11 6 ENE 1011,4 0,4
10.08.2018 07:00:00 17,1 17,1 8 4 NE 1011,6 0,3
10.08.2018 06:00:00 17,1 17,1 5 3 NE 1011,5 0,2
10.08.2018 05:00:00 16,9 16,9 5 3 NNE 1011,9 0,2
10.08.2018 04:00:00 17,1 17,1 5 3 - 1012,4 0,2
10.08.2018 03:00:00 17,0 17,0 4 2 - 1012,2 0,1
10.08.2018 02:00:00 16,8 16,8 4 2 - 1012,5 -
10.08.2018 01:00:00 16,5 16,5 5 3 ENE 1012,3 -
10.08.2018 00:00:00 16,1 16,1 5 3 E 1012,2 1,3
09.08.2018 23:00:00 16,5 16,3 8 4 E 1012,1 7
09.08.2018 22:00:00 18,2 16,7 8 4 ESE 1012,0 10
09.08.2018 21:00:00 19,3 16,5 4 2 S 1012,0 10
09.08.2018 20:00:00 21,8 16,7 8 4 S 1011,3 10
09.08.2018 19:00:00 23,3 16,6 11 6 SSW 1011,0 10
09.08.2018 18:00:00 24,1 16,9 15 8 S 1011,0 10
09.08.2018 17:00:00 24,3 16,8 16 9 S 1010,8 10
09.08.2018 16:00:00 24,5 17,2 21 11 S 1010,2 10
09.08.2018 15:00:00 24,3 17,8 11 6 SSW 1010,2 10
09.08.2018 14:00:00 25,7 15,7 18 10 SW 1009,6 10
09.08.2018 13:00:00 25,8 14,3 15 8 SW 1009,0 10
09.08.2018 12:00:00 23,9 15,4 11 6 SW 1008,9 10
09.08.2018 11:00:00 23,9 18,1 16 9 SSW 1008,5 10
09.08.2018 10:00:00 22,1 18,5 13 7 S 1008,1 10
09.08.2018 09:00:00 20,3 18,1 16 9 SSE 1007,7 10
09.08.2018 08:00:00 20,2 18,3 13 7 SSW 1007,2 10
09.08.2018 07:00:00 19,0 18,2 13 7 SSE 1007,1 10
09.08.2018 06:00:00 18,3 17,7 8 4 SSE 1007,1 10
09.08.2018 05:00:00 18,4 17,6 18 10 S 1007,4 10
09.08.2018 04:00:00 18,4 17,9 9 5 SSE 1006,9 10
09.08.2018 03:00:00 18,4 18,1 9 5 S 1007,3 10
09.08.2018 02:00:00 17,9 17,9 5 3 SE 1007,8 8
09.08.2018 01:00:00 18,2 18,2 9 5 SSE 1008,1 10
09.08.2018 00:00:00 17,7 17,2 0 0 N 1008,0 10
08.08.2018 23:00:00 18,7 18,4 15 8 S 1008,4 10
08.08.2018 22:00:00 18,6 18,4 9 5 SSE 1009,9 10
08.08.2018 21:00:00 18,4 18,1 9 5 SE 1009,6 10
08.08.2018 20:00:00 19,0 18,2 16 9 S 1010,2 10
08.08.2018 19:00:00 19,4 18,2 15 8 S 1010,2 10
08.08.2018 18:00:00 19,7 18,2 21 11 S 1010,8 10
08.08.2018 17:00:00 20,1 18,2 24 13 S 1011,1 10
08.08.2018 16:00:00 21,5 17,1 22 12 S 1011,5 10
08.08.2018 15:00:00 22,2 14,6 28 15 S 1011,5 10

tt = Température de l'air
td = dewpoint
ff = Vitesse du vent
dd = Direction du vent
ppp = reduced air pressure
vv = visibility

stations d'obs. à proximité